Wind_Speed
10 11 11 11 11 11 10 10 10 10 10 10 10 11 11 11 11 11 10 10 10 9 10 10 10 9 9 9 10 10 10 11 12 12 12 12 12 12 12 11 11 11 10
11 11 11 11 11 11 11 11 11 11 11 11 11 11 11 11 12 11 11 11 10 10 10 10 10 10 10 9 10 11 12 12 12 12 12 12 12 12 12 12 12 12 11
11 11 11 11 11 11 11 11 12 12 12 12 12 11 11 11 11 11 11 11 11 11 11 10 10 11 11 10 10 11 12 12 12 12 12 12 13 13 13 14 14 13 13
11 11 11 11 11 11 11 12 12 12 12 12 12 12 12 11 11 11 11 11 11 12 12 12 12 12 12 11 11 12 12 12 12 12 13 13 14 13 14 14 14 15 14
12 12 12 12 12 11 12 12 13 13 13 12 12 13 12 12 11 11 12 11 12 12 13 13 12 13 12 12 12 12 13 13 13 14 14 14 15 15 15 15 15 15 16
13 13 13 12 13 13 13 13 13 13 13 13 13 13 13 13 12 12 12 12 12 12 12 12 13 13 13 13 14 14 13 13 14 14 15 15 16 16 16 16 16 16 16
13 14 14 13 13 14 13 13 13 13 13 13 13 13 13 13 13 14 13 12 12 12 12 13 13 13 14 14 14 14 15 14 15 15 15 15 15 15 15 15 15 16 16
14 13 14 14 14 14 14 13 13 13 13 13 13 13 13 13 13 14 14 14 13 13 13 14 14 14 14 15 15 15 15 15 16 15 15 15 14 14 15 15 16 16 16
14 14 13 14 14 14 14 14 13 13 14 13 13 13 13 13 13 13 14 14 14 14 14 15 15 15 15 15 15 15 15 16 15 16 15 15 14 14 14 15 15 16 17
14 14 14 14 14 14 14 14 14 14 14 13 13 13 14 14 14 14 14 14 14 14 14 14 15 15 15 15 15 15 15 15 16 16 16 15 15 15 15 16 16 16 17
14 14 14 14 14 14 14 14 14 14 15 14 13 14 14 14 14 14 14 14 14 14 15 15 15 15 16 16 16 16 16 16 16 16 16 16 16 16 16 16 16 16 16
15 15 15 15 15 15 14 15 15 15 15 15 14 14 14 15 15 16 15 15 14 15 15 15 16 16 16 16 16 17 17 18 18 17 17 17 17 17 17 17 17 17 17
16 15 15 16 15 15 16 16 15 16 15 15 14 14 15 15 16 16 16 16 16 15 16 16 16 16 16 16 16 17 17 18 18 18 18 18 18 18 17 17 17 17 17
17 17 17 16 16 16 16 16 16 16 15 14 14 14 15 16 16 16 17 17 17 16 16 17 17 17 17 17 17 17 17 17 17 17 17 17 18 18 17 17 17 17 18
18 17 17 16 17 17 16 16 15 16 15 15 16 16 17 17 17 17 17 17 17 17 17 17 18 18 18 18 17 17 17 16 17 16 17 17 17 18 18 18 18 18 18
18 18 18 17 17 16 17 17 17 16 16 17 18 18 18 18 18 18 18 18 17 17 17 17 18 18 18 18 18 17 16 15 15 16 17 18 18 18 18 18 19 19 19
19 18 18 18 18 18 18 18 18 17 18 19 19 19 19 18 19 19 18 18 18 18 18 18 18 18 18 18 18 17 17 16 16 17 17 17 17 17 18 18 18 18 18
19 18 19 19 19 19 19 19 19 19 19 19 19 20 20 20 19 19 19 18 18 18 19 19 18 18 18 18 17 17 17 17 17 18 17 17 17 17 17 17 17 17 17
19 19 19 20 20 20 20 20 20 20 21 21 21 21 20 20 19 19 19 19 18 19 19 19 18 18 18 18 18 17 17 17 18 18 18 18 18 17 17 17 17 17 17
21 20 20 20 20 20 20 20 20 21 22 22 22 21 21 20 20 20 19 19 19 20 20 19 19 18 18 18 18 18 18 17 18 18 18 18 18 18 18 17 17 17 17
22 21 21 21 20 20 20 20 21 21 21 22 22 22 21 20 20 20 20 20 20 20 20 20 20 19 18 18 18 18 18 19 19 19 18 18 19 19 18 18 18 17 17
22 21 21 21 21 21 21 21 22 22 22 23 22 22 21 20 21 21 21 21 21 20 20 20 20 19 19 19 18 19 19 20 20 20 20 20 20 19 19 19 19 18 19
22 21 20 21 22 22 22 23 23 23 23 23 22 22 22 22 22 22 22 21 21 21 21 21 20 20 20 20 20 20 20 20 21 20 21 20 21 20 20 20 21 21 21
21 21 21 22 22 23 23 23 23 23 24 23 23 23 24 23 23 23 22 22 22 22 22 22 21 21 21 22 22 21 21 21 22 22 21 21 21 21 21 21 22 22 22
22 22 22 22 23 24 24 25 25 24 24 24 24 24 24 24 24 23 23 22 22 23 23 22 22 22 21 22 22 22 22 22 22 22 23 23 22 22 22 22 23 23 23
23 23 23 24 24 24 24 24 24 24 24 24 24 23 23 23 23 23 23 23 24 24 24 23 23 23 23 23 23 23 23 23 22 22 22 23 24 24 24 24 24 24 24
Wind_Direction
282 283 285 289 290 289 291 291 290 291 291 290 289 291 291 287 288 289 289 287 285 281 279 280 281 284 285 285 284 280 277 276 274 270 272 273 270 266 264 262 260 259 254
279 279 281 284 287 288 288 288 287 289 292 292 291 291 289 287 288 286 285 285 284 281 282 283 285 287 284 282 281 278 277 277 278 273 272 273 271 269 265 262 261 260 257
277 276 279 283 286 287 287 287 289 291 293 292 292 291 289 288 287 287 286 284 281 280 283 285 284 284 284 282 279 278 276 275 277 276 273 272 272 271 266 263 262 261 259
275 273 278 282 285 286 286 286 286 289 290 291 290 291 291 288 284 286 285 282 280 279 280 281 286 290 290 288 284 281 282 282 281 282 278 275 273 272 268 265 263 263 261
270 271 273 279 283 284 285 284 284 287 286 286 287 288 288 287 284 286 286 285 284 282 281 283 286 289 288 287 286 284 281 279 279 282 280 276 272 269 267 265 264 264 264
271 273 276 279 281 282 283 284 285 284 283 284 284 285 286 285 284 285 286 287 288 285 282 283 286 289 288 287 284 282 281 280 281 282 281 278 274 270 266 266 265 265 265
269 270 274 279 278 279 283 284 284 284 282 283 283 285 287 286 285 283 282 282 286 285 284 283 284 286 287 288 286 283 282 280 280 282 281 281 277 269 265 265 267 266 265
267 267 270 274 276 277 279 280 280 283 285 284 282 283 287 288 288 286 284 284 284 284 283 283 282 283 286 288 286 284 284 284 283 282 283 282 277 269 266 266 266 267 266
268 269 271 273 275 277 278 279 279 280 282 283 282 282 284 284 289 288 286 285 285 284 283 284 284 284 286 287 286 284 285 285 284 284 283 282 278 275 271 269 267 266 265
268 269 272 274 274 275 277 277 278 279 279 280 281 283 284 284 285 286 287 287 285 285 286 287 285 283 285 287 286 285 286 286 284 282 280 278 277 275 273 271 269 266 264
272 270 272 274 273 274 274 274 274 277 276 276 279 282 284 284 284 284 286 287 285 285 287 288 287 284 283 285 285 285 285 286 286 283 278 276 277 277 274 272 271 269 266
272 271 272 273 271 272 273 273 272 276 274 274 276 280 282 283 286 286 285 286 285 285 287 287 286 285 284 283 282 283 285 285 284 283 280 277 276 276 273 271 270 269 267
271 273 273 273 271 272 271 272 272 275 275 274 276 280 283 283 284 286 286 286 286 286 286 286 286 287 287 285 283 284 284 285 285 284 281 279 278 276 273 272 270 268 267
271 271 270 272 271 269 269 270 270 272 272 273 275 281 285 284 284 284 285 285 285 285 285 284 284 286 287 286 285 284 284 284 286 285 284 282 280 279 276 274 270 267 266
271 271 270 270 269 269 270 271 272 272 270 272 276 280 283 284 285 285 285 285 286 285 283 284 285 285 284 286 286 285 284 284 284 283 283 282 281 280 277 275 272 269 267
271 271 269 269 270 269 270 270 270 270 270 273 277 280 283 282 283 286 285 284 285 286 286 285 285 284 283 285 284 283 282 282 282 281 282 282 281 281 278 276 274 273 271
270 270 267 267 268 269 268 268 267 268 271 272 274 278 282 283 283 283 284 283 284 285 285 285 286 287 284 283 283 281 281 280 282 281 282 283 282 281 279 276 275 274 272
270 270 269 268 267 267 268 268 267 270 271 273 275 278 280 283 283 282 281 282 283 284 285 286 286 286 284 282 281 279 279 280 281 282 282 281 282 283 281 279 275 273 271
269 271 272 270 269 268 268 269 269 270 271 274 276 279 281 283 283 281 280 281 283 285 285 287 287 284 283 282 280 278 278 280 281 281 280 280 282 283 282 281 277 274 272
271 271 271 272 270 270 270 272 272 271 272 275 277 279 280 282 281 280 279 281 284 285 285 285 284 282 281 280 278 277 277 280 281 280 278 278 281 283 283 281 278 276 274
269 270 269 270 270 271 272 273 274 275 274 276 277 279 279 280 282 281 280 281 283 283 284 283 282 279 277 277 277 277 277 278 280 280 277 276 277 279 279 277 276 275 274
269 269 269 270 271 273 274 275 276 275 276 277 277 277 278 279 280 279 280 281 282 282 282 282 280 278 276 276 276 276 277 278 279 278 277 276 276 277 277 274 272 272 273
269 269 270 271 271 271 273 274 275 275 277 277 275 276 277 279 279 279 279 279 281 281 280 281 280 277 276 276 277 278 279 280 279 277 275 274 275 274 275 274 272 272 274
271 272 273 271 270 271 272 272 273 274 275 277 276 276 277 278 277 277 277 278 280 281 280 280 278 277 276 275 276 278 279 279 280 278 276 275 274 273 274 274 274 273 274
274 274 274 273 271 270 271 272 273 274 275 276 276 276 276 276 275 274 275 277 279 280 280 278 277 277 277 277 277 278 279 279 281 280 279 276 274 273 272 273 273 273 274
276 275 274 274 273 272 272 272 274 274 274 275 275 276 277 277 275 273 274 275 276 277 277 276 276 277 277 277 278 279 280 279 279 280 279 277 275 274 272 272 272 273 274
Height
5863 5863 5863 5862 5862 5861 5861 5860 5859 5859 5858 5858 5857 5856 5856 5855 5855 5854 5853 5853 5852 5851 5851 5851 5850 5850 5849 5848 5848 5848 5848 5848 5848 5847 5847 5847 5847 5847 5848 5848 5848 5848 5849
5861 5861 5860 5860 5859 5859 5858 5858 5857 5857 5856 5855 5855 5854 5853 5853 5852 5851 5851 5851 5850 5850 5849 5849 5848 5848 5847 5846 5846 5846 5846 5845 5845 5845 5845 5845 5844 5844 5845 5845 5846 5846 5846
5858 5858 5858 5857 5857 5856 5856 5855 5855 5854 5853 5853 5852 5851 5851 5850 5849 5849 5848 5848 5848 5847 5847 5846 5846 5845 5845 5844 5844 5843 5843 5843 5842 5842 5842 5842 5841 5841 5842 5842 5842 5843 5843
5855 5856 5855 5855 5854 5854 5853 5853 5852 5851 5851 5850 5849 5849 5848 5847 5847 5846 5846 5845 5845 5845 5844 5844 5843 5843 5842 5842 5841 5841 5840 5840 5839 5839 5839 5838 5838 5838 5838 5839 5839 5840 5840
5852 5852 5852 5852 5852 5851 5850 5850 5849 5848 5848 5847 5847 5846 5845 5845 5844 5844 5843 5843 5842 5842 5841 5841 5841 5840 5840 5839 5838 5838 5837 5837 5837 5836 5835 5835 5834 5834 5834 5835 5835 5836 5836
5849 5849 5849 5849 5848 5848 5847 5846 5846 5845 5844 5844 5843 5843 5842 5842 5841 5841 5840 5840 5839 5839 5838 5838 5838 5837 5837 5836 5836 5835 5834 5834 5833 5832 5831 5830 5829 5829 5830 5830 5831 5832 5832
5846 5846 5846 5845 5845 5844 5844 5843 5842 5842 5841 5841 5840 5840 5839 5839 5838 5838 5837 5837 5836 5836 5835 5835 5834 5834 5834 5833 5832 5832 5831 5830 5829 5829 5827 5826 5824 5823 5825 5826 5827 5828 5828
5842 5842 5842 5842 5841 5841 5840 5840 5839 5838 5838 5837 5837 5837 5836 5836 5835 5835 5834 5834 5833 5833 5832 5832 5831 5831 5830 5829 5829 5828 5827 5826 5826 5825 5824 5822 5820 5820 5821 5822 5823 5824 5824
5838 5838 5838 5838 5838 5837 5837 5836 5835 5835 5834 5834 5834 5834 5833 5833 5832 5832 5831 5831 5830 5829 5829 5828 5828 5827 5827 5826 5825 5825 5824 5823 5822 5821 5820 5819 5818 5818 5819 5819 5819 5819 5820
5834 5834 5834 5834 5834 5833 5833 5832 5832 5831 5831 5831 5830 5830 5830 5829 5829 5829 5828 5827 5826 5826 5825 5824 5824 5823 5823 5822 5822 5821 5820 5819 5818 5817 5817 5816 5816 5815 5815 5815 5815 5815 5815
5831 5830 5830 5830 5830 5830 5829 5829 5828 5828 5827 5827 5827 5826 5826 5826 5825 5825 5824 5824 5823 5822 5821 5821 5820 5819 5819 5818 5818 5817 5816 5815 5814 5813 5813 5812 5812 5811 5811 5811 5811 5811 5811
5827 5827 5826 5826 5826 5826 5825 5825 5825 5824 5824 5823 5823 5823 5823 5822 5822 5821 5820 5820 5819 5818 5817 5817 5816 5815 5814 5814 5813 5813 5812 5811 5810 5809 5808 5808 5807 5807 5806 5806 5806 5806 5806
5823 5822 5822 5822 5822 5821 5821 5821 5820 5820 5820 5820 5820 5819 5819 5818 5818 5817 5816 5816 5815 5814 5813 5813 5812 5811 5810 5809 5809 5808 5807 5806 5805 5804 5804 5803 5803 5802 5802 5802 5802 5802 5802
5818 5818 5818 5817 5817 5817 5817 5816 5816 5816 5816 5816 5816 5815 5815 5814 5813 5813 5812 5811 5811 5810 5809 5808 5807 5806 5805 5804 5804 5803 5802 5801 5800 5799 5799 5798 5798 5798 5797 5797 5797 5797 5797
5813 5813 5813 5813 5813 5812 5812 5812 5812 5812 5812 5811 5811 5811 5810 5809 5809 5808 5807 5807 5806 5805 5805 5803 5802 5801 5800 5799 5799 5798 5797 5796 5795 5795 5794 5794 5793 5793 5793 5792 5792 5792 5792
5808 5808 5808 5808 5808 5808 5807 5808 5807 5807 5807 5807 5806 5806 5805 5805 5804 5803 5802 5801 5801 5800 5799 5799 5797 5796 5795 5794 5793 5792 5792 5791 5791 5790 5789 5789 5788 5788 5787 5787 5787 5786 5786
5803 5803 5803 5803 5803 5803 5803 5803 5803 5802 5802 5802 5801 5801 5801 5800 5799 5798 5797 5796 5795 5794 5793 5793 5792 5790 5789 5788 5788 5787 5787 5786 5786 5785 5784 5784 5783 5782 5782 5781 5781 5781 5780
5797 5797 5798 5798 5798 5798 5798 5798 5798 5797 5797 5797 5797 5796 5795 5795 5794 5793 5792 5791 5790 5789 5788 5787 5786 5785 5784 5783 5783 5782 5782 5781 5781 5780 5779 5779 5778 5777 5777 5776 5776 5776 5775
5792 5792 5792 5792 5792 5792 5792 5792 5792 5792 5792 5792 5791 5791 5790 5789 5788 5787 5786 5785 5784 5783 5782 5781 5780 5780 5779 5778 5777 5777 5777 5776 5776 5775 5774 5774 5773 5772 5771 5771 5771 5771 5771
5787 5787 5787 5786 5787 5787 5787 5787 5787 5787 5786 5786 5785 5785 5784 5783 5782 5781 5781 5780 5779 5778 5777 5776 5775 5774 5774 5773 5772 5772 5772 5771 5770 5770 5769 5769 5768 5767 5767 5766 5766 5766 5766
5781 5781 5781 5781 5781 5781 5781 5781 5781 5781 5780 5780 5779 5779 5778 5777 5776 5776 5775 5774 5773 5772 5771 5770 5769 5769 5768 5767 5767 5767 5766 5766 5765 5764 5764 5763 5763 5762 5762 5761 5761 5761 5761
5774 5774 5775 5775 5775 5775 5775 5775 5775 5774 5774 5774 5773 5772 5772 5771 5770 5769 5769 5768 5767 5766 5765 5764 5764 5763 5763 5762 5761 5761 5760 5760 5760 5759 5758 5758 5757 5757 5756 5756 5755 5755 5755
5768 5768 5768 5768 5768 5769 5768 5768 5768 5768 5768 5767 5766 5766 5765 5764 5764 5763 5762 5761 5761 5760 5759 5759 5758 5757 5757 5756 5755 5755 5754 5754 5753 5752 5752 5751 5751 5751 5750 5750 5749 5749 5749
5762 5762 5762 5762 5762 5762 5762 5761 5761 5761 5761 5760 5759 5759 5758 5758 5757 5756 5755 5755 5754 5753 5753 5752 5751 5751 5750 5750 5749 5749 5748 5747 5747 5746 5745 5745 5745 5744 5744 5743 5743 5743 5743
5755 5755 5755 5755 5755 5755 5754 5754 5754 5754 5753 5753 5752 5751 5751 5750 5750 5749 5749 5748 5748 5747 5746 5745 5744 5744 5743 5742 5742 5742 5741 5741 5740 5739 5738 5738 5738 5738 5738 5737 5736 5736 5736
5748 5748 5748 5747 5747 5747 5747 5747 5746 5746 5746 5745 5745 5744 5743 5743 5742 5741 5741 5741 5741 5740 5739 5738 5737 5736 5736 5735 5735 5734 5734 5733 5733 5733 5732 5731 5731 5731 5731 5731 5730 5729 5729